Location: Newark
(21.1200°N, 73.4000°E)
Time: 03:37:15
(UTC+00:00)

Courier 1B Rocket - Pass Details

Date: 25 January 2020
Orbit: 920 x 1202 km, 28.2° (Epoch: 17 February)

Event Time Altitude Azimuth Distance (km) Brightness Sun altitude
Rises 13:00:36 0° 282° (WNW) 3,604 9.1 -2.8°
Reaches altitude 10° 13:03:26 10° 274° (W) 2,633 8.6 -3.4°
Maximum altitude 13:09:11 38° 208° (SSW) 1,367 6.3 -4.6°
Drops below altitude 10° 13:14:53 10° 142° (SE) 2,604 7.1 -5.9°
Sets 13:17:41 0° 134° (SE) 3,560 7.7 -6.5°
